Time,TemperatureF,DewpointF,PressureIn,WindDirection,WindDirectionDegrees,WindSpeedMPH,WindSpeedGustMPH,Humidity,HourlyPrecipIn,Conditions,Clouds,dailyrainin,SoftwareType,DateUTC
2013-04-20 00:02:00,26.0,-99.9,29.78,WNW,300,22.0,31.0,-999,-99.99,,,-99.99,,2013-04-20 05:02:00,
2013-04-20 00:12:00,26.0,-99.9,29.78,WNW,300,22.0,31.0,-999,-99.99,,,-99.99,,2013-04-20 05:12:00,
2013-04-20 00:22:00,26.0,-99.9,29.78,WNW,300,22.0,31.0,-999,-99.99,,,-99.99,,2013-04-20 05:22:00,
2013-04-20 00:32:00,26.0,-99.9,29.79,WNW,300,18.0,30.0,-999,-99.99,,,-99.99,,2013-04-20 05:32:00,
2013-04-20 00:43:00,26.0,-99.9,29.81,WNW,300,18.0,-999.0,-999,-99.99,,,-99.99,,2013-04-20 05:43:00,
2013-04-20 00:52:00,26.0,-99.9,29.81,WNW,300,18.0,-999.0,-999,-99.99,,,-99.99,,2013-04-20 05:52:00,
2013-04-20 01:02:00,26.0,-99.9,29.82,NW,310,23.0,31.0,-999,-99.99,,,-99.99,,2013-04-20 06:02:00,
2013-04-20 01:12:00,26.0,-99.9,29.82,NW,310,23.0,31.0,-999,-99.99,,,-99.99,,2013-04-20 06:12:00,
2013-04-20 01:22:00,26.0,-99.9,29.82,NW,310,24.0,30.0,-999,-99.99,,,-99.99,,2013-04-20 06:22:00,
2013-04-20 01:32:00,26.0,-99.9,29.82,NW,310,24.0,30.0,-999,-99.99,,,-99.99,,2013-04-20 06:32:00,
2013-04-20 01:42:00,26.0,-99.9,29.83,WNW,300,23.0,-999.0,-999,-99.99,,,-99.99,,2013-04-20 06:42:00,
2013-04-20 01:52:00,26.0,-99.9,29.83,WNW,300,23.0,-999.0,-999,-99.99,,,-99.99,,2013-04-20 06:52:00,
2013-04-20 02:02:00,26.0,-99.9,29.83,NW,310,25.0,32.0,-999,-99.99,,,-99.99,,2013-04-20 07:02:00,
2013-04-20 02:11:00,26.0,-99.9,29.83,NW,310,25.0,32.0,-999,-99.99,,,-99.99,,2013-04-20 07:11:00,
2013-04-20 02:21:00,25.0,-99.9,29.86,WNW,300,21.0,-999.0,-999,-99.99,,,-99.99,,2013-04-20 07:21:00,
2013-04-20 02:22:00,26.0,-99.9,29.83,NW,310,25.0,32.0,-999,-99.99,,,-99.99,,2013-04-20 07:22:00,
2013-04-20 02:32:00,26.0,-99.9,29.86,NW,310,18.0,32.0,-999,-99.99,,,-99.99,,2013-04-20 07:32:00,
2013-04-20 02:42:00,25.0,-99.9,29.86,WNW,300,21.0,-999.0,-999,-99.99,,,-99.99,,2013-04-20 07:42:00,
2013-04-20 02:52:00,25.0,-99.9,29.86,WNW,300,21.0,-999.0,-999,-99.99,,,-99.99,,2013-04-20 07:52:00,
2013-04-20 03:02:00,25.0,-99.9,29.86,WNW,300,21.0,-999.0,-999,-99.99,,,-99.99,,2013-04-20 08:02:00,
2013-04-20 03:11:00,25.0,-99.9,29.86,WNW,300,21.0,-999.0,-999,-99.99,,,-99.99,,2013-04-20 08:11:00,
2013-04-20 03:32:00,25.0,-99.9,29.89,NW,310,18.0,30.0,-999,-99.99,,,-99.99,,2013-04-20 08:32:00,
2013-04-20 03:40:00,25.0,-99.9,29.91,WNW,300,15.0,22.0,-999,-99.99,,,-99.99,,2013-04-20 08:40:00,
2013-04-20 03:42:00,25.0,-99.9,29.89,NW,310,18.0,30.0,-999,-99.99,,,-99.99,,2013-04-20 08:42:00,
2013-04-20 03:52:00,25.0,-99.9,29.90,NW,310,22.0,-999.0,-999,-99.99,,,-99.99,,2013-04-20 08:52:00,
2013-04-20 04:02:00,25.0,-99.9,29.91,WNW,300,15.0,22.0,-999,-99.99,,,-99.99,,2013-04-20 09:02:00,
2013-04-20 04:12:00,25.0,-99.9,29.91,WNW,300,15.0,22.0,-999,-99.99,,,-99.99,,2013-04-20 09:12:00,
2013-04-20 04:22:00,25.0,-99.9,29.91,WNW,300,15.0,22.0,-999,-99.99,,,-99.99,,2013-04-20 09:22:00,
2013-04-20 04:33:00,25.0,-99.9,29.91,WNW,300,15.0,22.0,-999,-99.99,,,-99.99,,2013-04-20 09:33:00,
2013-04-20 04:40:00,25.0,-99.9,29.94,NW,310,18.0,24.0,-999,-99.99,,,-99.99,,2013-04-20 09:40:00,
2013-04-20 04:53:00,25.0,-99.9,29.93,WNW,300,18.0,26.0,-999,-99.99,,,-99.99,,2013-04-20 09:53:00,
2013-04-20 05:03:00,25.0,-99.9,29.94,NW,310,18.0,24.0,-999,-99.99,,,-99.99,,2013-04-20 10:03:00,
2013-04-20 05:13:00,25.0,-99.9,29.94,NW,310,18.0,24.0,-999,-99.99,,,-99.99,,2013-04-20 10:13:00,
2013-04-20 05:23:00,25.0,-99.9,29.94,NW,310,18.0,24.0,-999,-99.99,,,-99.99,,2013-04-20 10:23:00,
2013-04-20 05:33:00,25.0,-99.9,29.94,NW,310,18.0,24.0,-999,-99.99,,,-99.99,,2013-04-20 10:33:00,
2013-04-20 05:40:00,24.0,-99.9,29.98,WNW,300,17.0,24.0,-999,-99.99,,,-99.99,,2013-04-20 10:40:00,
2013-04-20 05:53:00,24.0,-99.9,29.97,WNW,300,14.0,25.0,-999,-99.99,,,-99.99,,2013-04-20 10:53:00,
2013-04-20 06:03:00,24.0,-99.9,29.98,WNW,300,17.0,24.0,-999,-99.99,,,-99.99,,2013-04-20 11:03:00,
2013-04-20 06:12:00,24.0,-99.9,29.98,WNW,300,17.0,24.0,-999,-99.99,,,-99.99,,2013-04-20 11:12:00,
2013-04-20 06:23:00,24.0,-99.9,29.98,WNW,300,17.0,24.0,-999,-99.99,,,-99.99,,2013-04-20 11:23:00,
2013-04-20 06:32:00,24.0,-99.9,29.98,WNW,300,17.0,24.0,-999,-99.99,,,-99.99,,2013-04-20 11:32:00,
2013-04-20 06:40:00,24.0,-99.9,30.02,NW,310,18.0,25.0,-999,-99.99,,,-99.99,,2013-04-20 11:40:00,
2013-04-20 06:53:00,24.0,-99.9,30.01,WNW,300,13.0,25.0,-999,-99.99,,,-99.99,,2013-04-20 11:53:00,
2013-04-20 07:02:00,24.0,-99.9,30.02,NW,310,18.0,25.0,-999,-99.99,,,-99.99,,2013-04-20 12:02:00,
2013-04-20 07:11:00,24.0,-99.9,30.02,NW,310,18.0,25.0,-999,-99.99,,,-99.99,,2013-04-20 12:11:00,
2013-04-20 07:23:00,24.0,-99.9,30.02,NW,310,18.0,25.0,-999,-99.99,,,-99.99,,2013-04-20 12:23:00,
2013-04-20 07:32:00,24.0,-99.9,30.02,NW,310,18.0,25.0,-999,-99.99,,,-99.99,,2013-04-20 12:32:00,
2013-04-20 07:40:00,24.0,-99.9,30.05,NW,310,20.0,24.0,-999,-99.99,,,-99.99,,2013-04-20 12:40:00,
2013-04-20 07:52:00,24.0,-99.9,30.04,WNW,300,16.0,26.0,-999,-99.99,,,-99.99,,2013-04-20 12:52:00,
2013-04-20 08:02:00,24.0,-99.9,30.05,NW,310,20.0,24.0,-999,-99.99,,,-99.99,,2013-04-20 13:02:00,
2013-04-20 08:11:00,24.0,-99.9,30.05,NW,310,20.0,24.0,-999,-99.99,,,-99.99,,2013-04-20 13:11:00,
2013-04-20 08:22:00,24.0,-99.9,30.05,NW,310,20.0,24.0,-999,-99.99,,,-99.99,,2013-04-20 13:22:00,
2013-04-20 08:32:00,24.0,-99.9,30.05,NW,310,20.0,24.0,-999,-99.99,,,-99.99,,2013-04-20 13:32:00,
2013-04-20 08:40:00,25.0,-99.9,30.09,NW,310,17.0,24.0,-999,-99.99,,,-99.99,,2013-04-20 13:40:00,
2013-04-20 09:02:00,25.0,-99.9,30.09,NW,310,17.0,24.0,-999,-99.99,,,-99.99,,2013-04-20 14:02:00,
2013-04-20 09:11:00,25.0,-99.9,30.09,NW,310,17.0,24.0,-999,-99.99,,,-99.99,,2013-04-20 14:11:00,
2013-04-20 09:22:00,25.0,-99.9,30.09,NW,310,17.0,24.0,-999,-99.99,,,-99.99,,2013-04-20 14:22:00,
2013-04-20 09:32:00,25.0,-99.9,30.09,NW,310,17.0,24.0,-999,-99.99,,,-99.99,,2013-04-20 14:32:00,
2013-04-20 10:02:00,26.0,-99.9,30.12,NW,320,15.0,21.0,-999,-99.99,,,-99.99,,2013-04-20 15:02:00,
2013-04-20 10:12:00,26.0,-99.9,30.12,NW,320,15.0,21.0,-999,-99.99,,,-99.99,,2013-04-20 15:12:00,
2013-04-20 10:22:00,26.0,-99.9,30.14,NW,310,9.0,26.0,-999,-99.99,,,-99.99,,2013-04-20 15:22:00,
2013-04-20 10:34:00,26.0,-99.9,30.14,NW,310,9.0,26.0,-999,-99.99,,,-99.99,,2013-04-20 15:34:00,
2013-04-20 10:40:00,27.0,-99.9,30.16,NW,310,11.0,16.0,-999,-99.99,,,-99.99,,2013-04-20 15:40:00,
2013-04-20 10:43:00,26.0,-99.9,30.14,NW,310,9.0,26.0,-999,-99.99,,,-99.99,,2013-04-20 15:43:00,
2013-04-20 10:53:00,26.0,-99.9,30.14,NW,310,9.0,26.0,-999,-99.99,,,-99.99,,2013-04-20 15:53:00,
2013-04-20 11:03:00,27.0,-99.9,30.16,NW,310,11.0,16.0,-999,-99.99,,,-99.99,,2013-04-20 16:03:00,
2013-04-20 11:12:00,27.0,-99.9,30.16,NW,310,11.0,16.0,-999,-99.99,,,-99.99,,2013-04-20 16:12:00,
2013-04-20 11:23:00,27.0,-99.9,30.16,NW,310,11.0,16.0,-999,-99.99,,,-99.99,,2013-04-20 16:23:00,
2013-04-20 11:33:00,27.0,-99.9,30.16,NW,310,11.0,16.0,-999,-99.99,,,-99.99,,2013-04-20 16:33:00,
2013-04-20 11:40:00,29.0,-99.9,30.19,NW,320,9.0,15.0,-999,-99.99,,,-99.99,,2013-04-20 16:40:00,
2013-04-20 12:03:00,29.0,-99.9,30.19,NW,320,9.0,15.0,-999,-99.99,,,-99.99,,2013-04-20 17:03:00,
2013-04-20 12:12:00,29.0,-99.9,30.19,NW,320,9.0,15.0,-999,-99.99,,,-99.99,,2013-04-20 17:12:00,
2013-04-20 12:23:00,29.0,-99.9,30.19,NW,320,9.0,15.0,-999,-99.99,,,-99.99,,2013-04-20 17:23:00,
2013-04-20 12:33:00,29.0,-99.9,30.19,NW,320,9.0,15.0,-999,-99.99,,,-99.99,,2013-04-20 17:33:00,
2013-04-20 12:40:00,29.0,-99.9,30.21,NNW,330,6.0,9.0,-999,-99.99,,,-99.99,,2013-04-20 17:40:00,
2013-04-20 13:02:00,29.0,-99.9,30.21,NNW,330,6.0,9.0,-999,-99.99,,,-99.99,,2013-04-20 18:02:00,
2013-04-20 13:13:00,29.0,-99.9,30.21,NNW,330,6.0,9.0,-999,-99.99,,,-99.99,,2013-04-20 18:13:00,
2013-04-20 13:22:00,29.0,-99.9,30.21,NNW,330,6.0,9.0,-999,-99.99,,,-99.99,,2013-04-20 18:22:00,
2013-04-20 13:32:00,29.0,-99.9,30.21,NNW,330,6.0,9.0,-999,-99.99,,,-99.99,,2013-04-20 18:32:00,
2013-04-20 13:40:00,33.0,-99.9,30.23,NE,40,3.0,6.0,-999,-99.99,,,-99.99,,2013-04-20 18:40:00,
2013-04-20 14:02:00,33.0,-99.9,30.23,NE,40,3.0,6.0,-999,-99.99,,,-99.99,,2013-04-20 19:02:00,
2013-04-20 14:12:00,33.0,-99.9,30.23,NE,40,3.0,6.0,-999,-99.99,,,-99.99,,2013-04-20 19:12:00,
2013-04-20 14:22:00,33.0,-99.9,30.23,NE,40,3.0,6.0,-999,-99.99,,,-99.99,,2013-04-20 19:22:00,
2013-04-20 14:32:00,33.0,-99.9,30.23,NE,40,3.0,6.0,-999,-99.99,,,-99.99,,2013-04-20 19:32:00,
2013-04-20 14:40:00,33.0,-99.9,30.25,NNE,30,2.0,3.0,-999,-99.99,,,-99.99,,2013-04-20 19:40:00,
2013-04-20 15:02:00,33.0,-99.9,30.25,NNE,30,2.0,3.0,-999,-99.99,,,-99.99,,2013-04-20 20:02:00,
2013-04-20 15:12:00,33.0,-99.9,30.25,NNE,30,2.0,3.0,-999,-99.99,,,-99.99,,2013-04-20 20:12:00,
2013-04-20 15:22:00,33.0,-99.9,30.25,NNE,30,2.0,3.0,-999,-99.99,,,-99.99,,2013-04-20 20:22:00,
2013-04-20 15:32:00,33.0,-99.9,30.25,NNE,30,2.0,3.0,-999,-99.99,,,-99.99,,2013-04-20 20:32:00,
2013-04-20 15:40:00,34.0,-99.9,30.27,North,360,2.0,3.0,-999,-99.99,,,-99.99,,2013-04-20 20:40:00,
2013-04-20 16:02:00,34.0,-99.9,30.27,North,360,2.0,3.0,-999,-99.99,,,-99.99,,2013-04-20 21:02:00,
2013-04-20 16:12:00,34.0,-99.9,30.27,North,360,2.0,3.0,-999,-99.99,,,-99.99,,2013-04-20 21:12:00,
2013-04-20 16:22:00,34.0,-99.9,30.27,North,360,2.0,3.0,-999,-99.99,,,-99.99,,2013-04-20 21:22:00,
2013-04-20 16:33:00,34.0,-99.9,30.27,North,360,2.0,3.0,-999,-99.99,,,-99.99,,2013-04-20 21:33:00,
2013-04-20 16:40:00,33.0,-99.9,30.29,SE,140,9.0,10.0,-999,-99.99,,,-99.99,,2013-04-20 21:40:00,
2013-04-20 17:03:00,33.0,-99.9,30.29,SE,140,9.0,10.0,-999,-99.99,,,-99.99,,2013-04-20 22:03:00,
2013-04-20 17:13:00,33.0,-99.9,30.29,SE,140,9.0,10.0,-999,-99.99,,,-99.99,,2013-04-20 22:13:00,
2013-04-20 17:23:00,33.0,-99.9,30.29,SE,140,9.0,10.0,-999,-99.99,,,-99.99,,2013-04-20 22:23:00,
2013-04-20 17:33:00,33.0,-99.9,30.29,SE,140,9.0,10.0,-999,-99.99,,,-99.99,,2013-04-20 22:33:00,
2013-04-20 17:40:00,33.0,-99.9,30.31,SSE,150,9.0,13.0,-999,-99.99,,,-99.99,,2013-04-20 22:40:00,
2013-04-20 18:02:00,33.0,-99.9,30.31,SSE,150,9.0,13.0,-999,-99.99,,,-99.99,,2013-04-20 23:02:00,
2013-04-20 18:12:00,33.0,-99.9,30.31,SSE,150,9.0,13.0,-999,-99.99,,,-99.99,,2013-04-20 23:12:00,
2013-04-20 18:22:00,33.0,-99.9,30.31,SSE,150,9.0,13.0,-999,-99.99,,,-99.99,,2013-04-20 23:22:00,
2013-04-20 18:32:00,33.0,-99.9,30.31,SSE,150,9.0,13.0,-999,-99.99,,,-99.99,,2013-04-20 23:32:00,
2013-04-20 18:40:00,33.0,-99.9,30.32,SE,140,9.0,13.0,-999,-99.99,,,-99.99,,2013-04-20 23:40:00,
2013-04-20 19:01:00,33.0,-99.9,30.32,SE,140,9.0,13.0,-999,-99.99,,,-99.99,,2013-04-21 00:01:00,
2013-04-20 19:12:00,33.0,-99.9,30.32,SE,140,9.0,13.0,-999,-99.99,,,-99.99,,2013-04-21 00:12:00,
2013-04-20 19:22:00,33.0,-99.9,30.32,SE,140,9.0,13.0,-999,-99.99,,,-99.99,,2013-04-21 00:22:00,
2013-04-20 19:32:00,33.0,-99.9,30.32,SE,140,9.0,13.0,-999,-99.99,,,-99.99,,2013-04-21 00:32:00,
2013-04-20 19:40:00,32.0,-99.9,30.35,SSE,150,5.0,8.0,-999,-99.99,,,-99.99,,2013-04-21 00:40:00,
2013-04-20 20:01:00,32.0,-99.9,30.35,SSE,150,5.0,8.0,-999,-99.99,,,-99.99,,2013-04-21 01:01:00,
2013-04-20 20:12:00,32.0,-99.9,30.35,SSE,150,5.0,8.0,-999,-99.99,,,-99.99,,2013-04-21 01:12:00,
2013-04-20 20:22:00,32.0,-99.9,30.35,SSE,150,5.0,8.0,-999,-99.99,,,-99.99,,2013-04-21 01:22:00,
2013-04-20 20:32:00,32.0,-99.9,30.35,SSE,150,5.0,8.0,-999,-99.99,,,-99.99,,2013-04-21 01:32:00,
2013-04-20 20:40:00,32.0,-99.9,30.37,SSE,150,7.0,8.0,-999,-99.99,,,-99.99,,2013-04-21 01:40:00,
2013-04-20 21:02:00,32.0,-99.9,30.37,SSE,150,7.0,8.0,-999,-99.99,,,-99.99,,2013-04-21 02:02:00,
2013-04-20 21:11:00,32.0,-99.9,30.37,SSE,150,7.0,8.0,-999,-99.99,,,-99.99,,2013-04-21 02:11:00,
2013-04-20 21:22:00,32.0,-99.9,30.37,SSE,150,7.0,8.0,-999,-99.99,,,-99.99,,2013-04-21 02:22:00,
2013-04-20 21:32:00,32.0,-99.9,30.37,SSE,150,7.0,8.0,-999,-99.99,,,-99.99,,2013-04-21 02:32:00,
2013-04-20 21:40:00,32.0,-99.9,30.40,SSE,150,6.0,8.0,-999,-99.99,,,-99.99,,2013-04-21 02:40:00,
2013-04-20 22:02:00,32.0,-99.9,30.40,SSE,150,6.0,8.0,-999,-99.99,,,-99.99,,2013-04-21 03:02:00,
2013-04-20 22:11:00,32.0,-99.9,30.40,SSE,150,6.0,8.0,-999,-99.99,,,-99.99,,2013-04-21 03:11:00,
2013-04-20 22:22:00,32.0,-99.9,30.40,SSE,150,6.0,8.0,-999,-99.99,,,-99.99,,2013-04-21 03:22:00,
2013-04-20 22:33:00,32.0,-99.9,30.40,SSE,150,6.0,8.0,-999,-99.99,,,-99.99,,2013-04-21 03:33:00,
2013-04-20 22:40:00,32.0,-99.9,30.41,SSE,160,7.0,9.0,-999,-99.99,,,-99.99,,2013-04-21 03:40:00,
2013-04-20 23:03:00,32.0,-99.9,30.41,SSE,160,7.0,9.0,-999,-99.99,,,-99.99,,2013-04-21 04:03:00,
2013-04-20 23:13:00,32.0,-99.9,30.41,SSE,160,7.0,9.0,-999,-99.99,,,-99.99,,2013-04-21 04:13:00,
2013-04-20 23:23:00,32.0,-99.9,30.41,SSE,160,7.0,9.0,-999,-99.99,,,-99.99,,2013-04-21 04:23:00,
2013-04-20 23:33:00,32.0,-99.9,30.41,SSE,160,7.0,9.0,-999,-99.99,,,-99.99,,2013-04-21 04:33:00,
2013-04-20 23:40:00,32.0,-99.9,30.42,SSE,150,6.0,8.0,-999,-99.99,,,-99.99,,2013-04-21 04:40:00,